This is the latest recevied weather packets stored in our database for station/object N8SDR. If no packets are shown the sender has not sent any weather packets the latest 10 day(s).
| Time | Temp. | Humidity | Pressure | Rain* | Wind** | Luminosity | Snow |
|---|---|---|---|---|---|---|---|
| 1777856244 | 15.56° C | 47% | 1009.3 hPa | 0 mm | - | 0 W/m² | - |
| 1777855941 | 15.56° C | 47% | 1009.5 hPa | 0 mm | - | 0 W/m² | - |
| 1777855639 | 15.56° C | 47% | 1009.5 hPa | 0 mm | - | 0 W/m² | - |
| 1777855335 | 15.56° C | 47% | 1009.2 hPa | 0 mm | - | 0 W/m² | - |
| 1777855032 | 15.56° C | 47% | 1009.5 hPa | 0 mm | - | 0 W/m² | - |
| 1777854729 | 15.56° C | 46% | 1009.2 hPa | 0 mm | - | 2 W/m² | - |
| 1777854426 | 15.56° C | 46% | 1009.4 hPa | 0 mm | - | 3 W/m² | - |
| 1777854123 | 15.56° C | 46% | 1009.4 hPa | 0 mm | - | 3 W/m² | - |
| 1777853821 | 15.56° C | 45% | 1009.4 hPa | 0 mm | - | 3 W/m² | - |
| 1777853517 | 15.56° C | 44% | 1009.5 hPa | 0 mm | - | 4 W/m² | - |
| 1777853214 | 16.11° C | 44% | 1009.3 hPa | 0 mm | - | 8 W/m² | - |
| 1777852911 | 16.11° C | 45% | 1009.5 hPa | 0 mm | - | 10 W/m² | - |
| 1777852609 | 16.11° C | 44% | 1009.4 hPa | 0 mm | - | 16 W/m² | - |
| 1777852305 | 16.11° C | 44% | 1009.3 hPa | 0 mm | - | 14 W/m² | - |
| 1777852004 | 16.11° C | 44% | 1009.1 hPa | 0 mm | - | 9 W/m² | - |
| 1777851702 | 16.11° C | 43% | 1009.1 hPa | 0 mm | - | 22 W/m² | - |
| 1777851398 | 16.11° C | 43% | 1009.3 hPa | 0 mm | - | 39 W/m² | - |
| 1777851094 | 16.67° C | 43% | 1009.2 hPa | 0 mm | - | 64 W/m² | - |
| 1777850791 | 16.11° C | 44% | 1009.1 hPa | 0 mm | - | 72 W/m² | - |
| 1777850488 | 16.67° C | 44% | 1009.5 hPa | 0 mm | - | 43 W/m² | - |
| 1777850186 | 16.67° C | 44% | 1009.4 hPa | 0 mm | - | 46 W/m² | - |
| 1777849882 | 16.67° C | 44% | 1009.6 hPa | 0 mm | - | 95 W/m² | - |
| 1777849579 | 16.67° C | 44% | 1009.9 hPa | 0 mm | - | 103 W/m² | - |
| 1777849277 | 16.67° C | 44% | 1009.9 hPa | 0 mm | - | 84 W/m² | - |
| 1777848974 | 16.67° C | 44% | 1010.1 hPa | 0 mm | - | 110 W/m² | - |
* Rain latest hour (hover to see other rain measurements)
** Current wind speed in m/s (hover to see current wind gust speed)